TimeMDT,TemperatureF,Dew PointF,Humidity,Sea Level PressureIn,VisibilityMPH,Wind Direction,Wind SpeedMPH,Gust SpeedMPH,PrecipitationIn,Events,Conditions,WindDirDegrees,DateUTC
12:15 AM,49.1,25.7,40,30.25,10.0,NW,4.6,-,N/A,,Clear,320,2012-10-11 06:15:00
12:35 AM,47.8,25.0,41,30.25,10.0,Calm,Calm,-,N/A,,Clear,0,2012-10-11 06:35:00
12:55 AM,48.9,24.3,38,30.25,10.0,WNW,3.5,-,N/A,,Clear,290,2012-10-11 06:55:00
1:15 AM,47.3,23.9,40,30.26,10.0,NNW,4.6,-,N/A,,Clear,340,2012-10-11 07:15:00
1:35 AM,47.1,23.9,40,30.26,10.0,NNW,6.9,-,N/A,,Clear,340,2012-10-11 07:35:00
1:55 AM,47.3,24.3,40,30.26,10.0,NW,3.5,-,N/A,,Clear,320,2012-10-11 07:55:00
2:15 AM,45.7,24.3,43,30.26,10.0,NNW,3.5,-,N/A,,Clear,340,2012-10-11 08:15:00
2:55 AM,45.5,24.6,44,30.25,10.0,NNW,9.2,-,N/A,,Clear,340,2012-10-11 08:55:00
3:15 AM,45.7,24.4,43,30.25,10.0,NNW,9.2,-,N/A,,Clear,330,2012-10-11 09:15:00
3:35 AM,45.5,24.8,44,30.25,10.0,NNW,12.7,-,N/A,,Clear,340,2012-10-11 09:35:00
3:55 AM,44.2,25.3,47,30.26,10.0,NNW,9.2,-,N/A,,Clear,340,2012-10-11 09:55:00
4:35 AM,43.3,25.5,49,30.26,10.0,NNW,9.2,-,N/A,,Clear,330,2012-10-11 10:35:00
4:55 AM,43.2,25.7,50,30.27,10.0,NNW,9.2,-,N/A,,Clear,330,2012-10-11 10:55:00
5:15 AM,43.0,25.5,50,30.27,10.0,NW,10.4,-,N/A,,Clear,320,2012-10-11 11:15:00
5:35 AM,42.8,25.3,50,30.28,10.0,NNW,5.8,-,N/A,,Clear,340,2012-10-11 11:35:00
5:55 AM,40.6,25.2,54,30.29,10.0,Calm,Calm,-,N/A,,Clear,0,2012-10-11 11:55:00
6:15 AM,41.2,25.2,53,30.29,10.0,West,3.5,-,N/A,,Clear,280,2012-10-11 12:15:00
6:55 AM,40.6,24.6,53,30.30,10.0,WNW,3.5,-,N/A,,Clear,290,2012-10-11 12:55:00
7:15 AM,40.5,24.8,54,30.30,10.0,NW,3.5,-,N/A,,Clear,310,2012-10-11 13:15:00
7:35 AM,40.8,24.6,53,30.30,10.0,NNW,3.5,-,N/A,,Clear,330,2012-10-11 13:35:00
7:55 AM,41.5,24.8,51,30.31,10.0,Calm,Calm,-,N/A,,Clear,0,2012-10-11 13:55:00
8:35 AM,44.2,25.0,47,30.32,10.0,Calm,Calm,-,N/A,,Clear,0,2012-10-11 14:35:00
8:55 AM,45.7,26.1,46,30.32,10.0,NNW,3.5,-,N/A,,Clear,330,2012-10-11 14:55:00
9:15 AM,47.7,25.2,41,30.32,10.0,Calm,Calm,-,N/A,,Clear,0,2012-10-11 15:15:00
9:35 AM,50.2,24.6,37,30.32,10.0,Calm,Calm,-,N/A,,Clear,0,2012-10-11 15:35:00
9:55 AM,53.1,25.0,34,30.32,10.0,Calm,Calm,-,N/A,,Clear,0,2012-10-11 15:55:00
10:15 AM,55.0,25.7,32,30.32,10.0,Calm,Calm,-,N/A,,Clear,0,2012-10-11 16:15:00
10:35 AM,57.4,25.5,29,30.31,10.0,Calm,Calm,-,N/A,,Clear,0,2012-10-11 16:35:00
10:55 AM,60.3,25.3,26,30.31,10.0,Calm,Calm,-,N/A,,Clear,0,2012-10-11 16:55:00
11:15 AM,63.3,25.2,23,30.30,10.0,Calm,Calm,-,N/A,,Clear,0,2012-10-11 17:15:00
11:55 AM,68.5,23.5,18,30.29,10.0,SE,8.1,-,N/A,,Clear,140,2012-10-11 17:55:00
12:15 PM,70.3,23.0,17,30.28,10.0,South,6.9,-,N/A,,Clear,170,2012-10-11 18:15:00
12:35 PM,70.7,22.8,16,30.27,10.0,SE,8.1,-,N/A,,Clear,130,2012-10-11 18:35:00
12:55 PM,71.2,23.0,16,30.26,10.0,SSE,9.2,16.1,N/A,,Clear,150,2012-10-11 18:55:00
1:15 PM,72.3,23.5,16,30.25,10.0,ESE,8.1,-,N/A,,Clear,110,2012-10-11 19:15:00
2:15 PM,73.2,22.3,15,30.23,10.0,SSW,10.4,-,N/A,,Clear,200,2012-10-11 20:15:00
2:55 PM,73.6,21.7,14,30.22,10.0,SSE,9.2,18.4,N/A,,Clear,150,2012-10-11 20:55:00
3:15 PM,73.8,21.6,14,30.22,10.0,SSE,12.7,19.6,N/A,,Clear,150,2012-10-11 21:15:00
3:35 PM,73.6,21.2,14,30.22,10.0,South,13.8,25.3,N/A,,Clear,180,2012-10-11 21:35:00
3:55 PM,71.8,21.9,15,30.22,10.0,South,13.8,25.3,N/A,,Scattered Clouds,170,2012-10-11 21:55:00
4:15 PM,71.4,22.1,16,30.22,10.0,South,12.7,23.0,N/A,,Mostly Cloudy,180,2012-10-11 22:15:00
4:35 PM,70.7,22.1,16,30.22,10.0,SSE,10.4,21.9,N/A,,Mostly Cloudy,150,2012-10-11 22:35:00
4:55 PM,71.4,21.9,16,30.22,10.0,South,12.7,19.6,N/A,,Mostly Cloudy,170,2012-10-11 22:55:00
5:35 PM,70.9,20.7,15,30.22,10.0,South,15.0,21.9,N/A,,Scattered Clouds,180,2012-10-11 23:35:00
5:55 PM,69.8,20.8,16,30.22,10.0,South,11.5,21.9,N/A,,Scattered Clouds,190,2012-10-11 23:55:00
6:15 PM,68.9,20.7,16,30.22,10.0,SSE,5.8,-,N/A,,Clear,160,2012-10-12 00:15:00
6:55 PM,67.3,21.9,18,30.25,10.0,SE,16.1,21.9,N/A,,Scattered Clouds,130,2012-10-12 00:55:00
7:15 PM,64.8,27.9,25,30.27,10.0,ESE,18.4,29.9,N/A,,Mostly Cloudy,120,2012-10-12 01:15:00
7:35 PM,63.1,30.2,29,30.27,10.0,ESE,21.9,32.2,N/A,,Scattered Clouds,120,2012-10-12 01:35:00
8:15 PM,60.4,32.2,35,30.29,10.0,SE,19.6,29.9,N/A,,Mostly Cloudy,130,2012-10-12 02:15:00
8:55 PM,57.9,33.8,40,30.32,10.0,ESE,17.3,32.2,N/A,,Mostly Cloudy,120,2012-10-12 02:55:00
9:15 PM,57.2,34.0,42,30.34,10.0,SE,23.0,32.2,N/A,,Mostly Cloudy,130,2012-10-12 03:15:00
9:55 PM,55.6,34.7,45,30.35,10.0,ESE,13.8,23.0,N/A,,Scattered Clouds,120,2012-10-12 03:55:00
10:55 PM,53.6,35.1,50,30.37,10.0,SE,15.0,24.2,N/A,,Overcast,130,2012-10-12 04:55:00
11:15 PM,52.9,34.9,50,30.37,10.0,ESE,18.4,25.3,N/A,,Overcast,120,2012-10-12 05:15:00
11:35 PM,52.7,35.1,51,30.38,10.0,SE,13.8,25.3,N/A,,Overcast,140,2012-10-12 05:35:00
11:55 PM,51.8,35.6,54,30.38,10.0,SE,12.7,18.4,N/A,,Overcast,130,2012-10-12 05:55:00